CZ-3B DEB, 39333

Orbit data source: Space-Track

CZ-3B DEB, 39333 is space debris in HEO originally from a launch on Sat, 04 Sep 2010 UTC launched from the Xichang Space Center, China (XSC). Debris objects in space refer to the collection of defunct objects orbiting the Earth. Examples of debris include non-operational satellites, rocket bodies, and fragments generated from explosions, collisions, or faulty payload assembly.

Loading next visibility...
Identifier
39333, 2010-042E
Orbit
HEO
Country
Flag of CNCN / PRC
Related business
Manufacturer
CALT
Mission
Spacecraft
Bus & Motor
Unknown
Mass
Unknown
Launch date (UTC)
2010-09-04 (15 years ago)
Launch vehicle
Unknown
Launch site
Xichang Space Center, China (XSC)
Object type
Payload
Rocket body
Debris
Shape & HBR
Unknown shape, 0.3 m
Radar Cross Section
Medium (>0.1 m² and <1 m²)

Expand to show TLE details & history
Last TLE update: 9 hours ago

TLE from 9 hours ago
0 CZ-3B DEB
1 39333U 10042E   25293.60399716 -.00000081  00000-0  30423-3 0  9995
2 39333  24.1473  85.1019 7453067  19.8862   5.8152  1.91221602 85530
Epoch: 2025-10-20T14:29Z
TLE epoch observation values (Epoch: 2025-10-20T14:29:45.354Z)
Latitude
23.03128°
Longitude
-90.39623°
Altitude
2,066.769 km
Speed
8.938 km/s
True Right ascension
10h 25m 23s
True Declination
22° 55' 37"
Sunlit
Object was in daylight at epoch
Visualization orbit readout
Latitude
Unknown
Longitude
Unknown
Altitude
Unknown
Speed
Unknown
Apparent Right ascension
Unknown
Apparent Declination
Unknown
Sunlit
N/A
Visualization observer readout
Local Sidereal Time
18:52:55
Azimuth
Unknown
Elevation
Unknown
Doppler factor
Unknown
Orbital elements
Apogee altitude
41,482.69 km
Perigee altitude
606.212 km
Semi-major axis
27,422.588 km
Eccentricity
0.74531
Inclination
24.1473°
RAAN
85.1019°
Arg. of periapsis
19.8862°
True anomaly
52.6117°
Mean anomaly
5.8152°
Eccentric anomaly
21.38859°
Mean motion
0.47795 °/min
Orbital period
753.22 mins
BSTAR
0.00030423
Loading maneuver chart data...
Computing Atmospheric mass density...
Loading historical data...
Loading historical data...
Loading historical data...
Loading historical data...
Loading historical data...
Loading historical data...
Loading historical data...

Documentation

Showing up to 5 results
|